Wind_Speed
4 5 7 8 11 13 12 10 8 6 7 10 13 15 15 15 17 21 24 24 25 26 26 26 27 26 23 22 22 22 23 23 21 21 20 19 17 16 15 14 14 14 14 13 14 13 13 12 12 12 12 13 13 12 11 11 10 11 11 11 12 13 14 15 12 13 19 19 17 17 19 20 20 19 21 22 20 17 16 14 13 12 13 14 15
4 4 5 7 11 13 13 10 7 4 3 5 8 10 12 13 14 16 19 20 22 23 24 26 27 25 22 22 22 22 23 22 22 21 21 19 18 17 16 14 13 13 13 13 12 11 11 11 11 11 11 10 10 10 9 9 9 9 10 10 11 10 10 12 12 12 16 19 17 16 18 19 18 19 20 20 19 17 15 13 12 11 10 11 12
4 4 3 5 8 11 12 11 9 6 5 3 2 4 7 9 10 12 15 18 20 22 22 24 24 23 21 21 21 21 21 21 21 21 20 20 19 18 16 15 14 13 13 12 11 10 9 9 10 9 8 7 7 7 8 8 8 8 9 9 10 10 10 12 13 12 14 17 16 16 17 17 18 18 18 17 15 14 13 12 12 10 10 11 11
4 4 2 3 6 8 10 11 11 11 10 7 6 3 2 5 8 9 12 14 16 19 21 21 21 19 19 19 19 20 20 20 19 19 19 19 18 17 16 15 14 12 11 10 7 7 7 7 7 7 6 6 7 7 6 7 7 7 7 7 8 10 10 11 13 13 13 15 16 16 16 16 16 16 15 15 13 12 11 12 13 12 12 12 14
4 3 2 3 6 8 9 9 11 13 13 11 10 8 6 5 6 8 11 13 14 16 18 19 19 18 18 19 19 19 19 18 18 18 17 16 15 15 15 14 12 10 8 7 7 6 6 6 6 6 7 7 7 6 7 7 7 6 6 6 6 7 7 8 10 11 11 14 16 16 15 15 14 13 13 15 15 13 13 13 15 16 16 16 17
4 4 3 3 6 9 9 9 10 12 13 13 12 10 8 8 8 9 11 13 15 17 19 19 18 18 18 18 18 18 17 17 17 15 14 13 12 13 13 11 10 9 9 9 7 6 5 5 7 8 9 8 8 7 8 8 8 7 5 4 4 5 5 6 7 7 9 11 13 14 13 12 12 12 13 15 15 14 15 17 18 18 20 21 21
4 5 4 4 6 8 9 10 10 11 12 13 13 12 10 9 9 10 11 13 15 16 18 19 17 17 18 18 18 18 17 16 15 14 13 13 12 12 12 12 12 12 11 9 6 6 6 6 7 9 9 9 8 7 7 8 8 8 6 5 4 5 5 5 5 6 7 8 10 11 11 10 11 12 13 14 13 12 16 20 21 22 23 24 25
4 5 6 6 7 8 10 11 12 13 13 13 13 13 12 12 12 11 12 14 15 15 16 16 15 15 16 17 17 17 17 17 16 16 16 15 14 14 15 15 15 14 12 10 9 9 9 9 9 9 9 8 7 6 6 6 6 6 5 5 4 4 4 4 4 4 6 7 8 8 9 10 12 12 13 13 12 14 17 19 21 24 26 26 25
4 6 7 8 9 10 11 13 14 14 14 14 14 13 12 11 11 12 13 15 17 17 18 19 19 19 19 19 20 20 20 20 20 20 20 19 18 18 18 17 15 14 13 12 11 10 9 9 9 7 7 7 6 5 4 4 4 4 4 5 5 5 5 4 3 4 5 7 7 8 9 10 11 12 12 12 12 15 18 20 21 23 26 28 24
7 8 8 9 10 10 11 11 11 12 12 13 13 12 10 8 8 10 11 12 14 17 21 22 22 23 23 23 23 23 22 21 21 20 20 20 20 20 18 16 15 13 12 12 11 9 7 6 5 5 5 6 6 6 6 6 6 6 6 7 7 7 6 6 4 5 6 7 7 8 8 7 8 9 10 12 14 17 18 19 20 21 23 24 22
10 10 10 11 11 11 10 10 9 9 10 10 10 10 8 6 6 9 9 9 10 13 18 20 21 21 22 22 22 22 21 20 18 18 17 16 16 15 14 13 11 10 8 7 7 7 6 6 5 5 5 6 6 6 6 6 6 6 6 6 6 5 5 4 3 3 4 5 5 5 5 5 6 8 10 12 14 15 15 16 16 18 18 16 15
12 12 12 12 12 11 11 10 9 9 9 8 8 8 5 4 3 5 7 8 9 10 13 16 17 18 18 19 19 20 19 17 15 15 14 13 12 11 11 9 8 7 6 5 5 5 6 6 6 6 5 5 5 5 5 4 3 2 2 1 1 1 1 2 1 2 2 3 4 5 6 7 7 9 10 12 13 12 13 13 14 16 15 12 13
13 13 12 11 11 10 9 9 8 8 7 7 7 5 3 2 2 5 7 9 9 10 12 14 15 15 15 16 17 17 17 15 13 12 12 11 9 8 7 6 5 5 5 5 5 6 6 6 6 5 4 4 4 3 4 4 3 4 4 4 5 4 4 4 3 3 3 4 5 6 7 8 10 10 10 10 12 12 13 13 13 13 14 15 17
14 12 11 10 9 8 7 7 7 6 6 5 4 3 4 6 6 7 8 9 10 12 13 14 14 14 14 15 16 16 16 14 11 10 9 8 6 5 5 5 6 6 7 7 8 7 7 5 5 5 4 4 4 4 4 5 5 6 6 6 6 6 5 5 5 5 5 6 7 8 8 9 10 10 9 9 10 12 13 12 11 12 13 15 18
14 13 11 9 8 7 6 6 6 6 4 4 3 4 5 6 7 8 8 9 10 12 13 13 14 14 14 15 16 16 16 13 10 9 8 7 5 4 4 5 6 8 9 9 9 8 6 5 5 5 5 4 5 5 5 6 7 8 8 8 8 8 7 8 9 9 9 9 10 11 11 10 10 10 9 10 9 10 10 9 10 12 13 15 16
13 13 11 9 8 7 6 6 6 5 5 6 7 8 8 7 7 7 8 10 11 11 12 12 13 14 14 14 16 17 16 13 10 9 7 6 4 3 3 4 7 9 10 10 9 7 6 4 4 4 5 6 6 7 7 8 9 10 10 11 10 10 11 12 12 12 12 12 12 12 11 11 11 11 11 11 10 11 9 9 13 15 14 13 13
13 13 11 10 8 7 6 6 6 7 8 10 10 10 9 7 7 8 9 10 11 11 11 12 12 13 14 14 16 17 15 12 9 7 6 4 3 3 5 6 8 9 10 8 7 7 5 4 4 5 7 7 7 7 8 8 9 10 12 12 12 13 15 15 14 14 14 13 12 12 11 11 11 11 11 12 12 12 12 13 17 16 13 11 9
12 12 11 10 8 7 6 6 8 11 12 12 12 10 9 8 8 9 9 10 11 11 12 13 13 13 15 16 16 15 14 12 9 8 7 5 5 6 8 9 10 10 9 7 5 5 4 5 6 7 7 7 6 6 7 7 8 10 11 12 14 16 16 15 13 13 12 11 11 11 10 11 11 11 13 13 14 15 15 15 15 13 11 11 9
11 11 11 10 9 7 7 7 10 13 13 13 12 10 8 8 8 9 9 10 12 13 14 15 16 16 16 15 14 14 14 14 12 11 10 8 7 8 9 11 11 11 9 7 6 5 5 6 8 9 9 8 7 7 7 7 9 10 11 12 16 17 15 13 11 10 9 9 10 11 11 12 13 13 14 15 16 17 17 15 13 12 10 10 10
9 10 11 10 9 8 8 9 11 13 12 11 10 8 7 7 8 8 8 10 14 16 17 18 19 18 17 16 15 14 14 15 15 14 14 12 11 10 11 12 12 12 10 9 9 9 9 10 11 12 11 11 10 10 10 10 11 12 12 14 17 17 14 12 11 10 9 10 11 11 12 13 13 14 15 16 17 18 17 16 15 14 11 9 10
9 11 11 10 9 8 8 10 11 11 10 10 9 8 8 9 9 9 8 10 16 20 21 21 21 19 18 17 16 15 15 16 16 15 15 15 13 13 13 13 13 13 14 14 14 14 14 15 16 15 15 15 14 14 14 14 14 14 15 15 16 14 11 10 10 9 9 10 11 12 13 14 15 16 17 18 19 19 18 18 17 16 13 10 10
10 12 11 10 9 9 9 10 10 9 8 9 9 8 9 11 11 10 10 13 19 23 24 23 22 20 19 17 16 16 15 15 15 15 15 15 15 14 14 15 15 16 18 19 18 18 19 19 19 18 16 16 15 15 15 15 14 15 15 14 13 11 10 9 8 8 10 11 12 14 16 17 18 19 19 20 21 20 19 19 19 18 16 13 9
11 12 12 10 10 9 9 10 10 8 7 8 9 8 9 11 11 11 12 16 21 24 24 23 21 20 18 16 15 15 14 13 14 15 15 15 15 15 16 17 18 19 20 21 21 20 20 19 18 16 15 14 13 13 13 13 13 14 13 12 11 10 8 8 9 9 11 13 15 17 18 19 19 20 21 21 21 21 20 20 20 20 19 18 14
13 13 12 11 10 9 9 10 10 8 6 8 9 9 9 10 12 12 14 17 21 23 23 20 18 17 16 15 14 13 13 12 13 14 15 15 15 15 17 18 19 19 19 20 20 20 19 18 17 15 13 13 13 13 13 13 12 12 11 11 10 9 8 9 10 11 13 16 17 18 18 18 19 20 20 20 20 20 20 20 21 21 22 21 19
14 13 12 11 10 10 10 10 10 8 5 6 9 10 9 10 12 13 14 16 19 20 20 18 15 14 13 12 11 11 11 12 12 14 15 15 15 15 16 17 17 17 17 18 18 18 17 16 15 14 13 14 14 14 14 13 12 12 11 10 10 10 10 11 12 14 16 17 17 16 16 15 16 17 17 17 19 20 21 23 24 24 25 25 24
14 12 11 10 9 9 10 11 10 8 5 4 7 9 9 9 12 14 14 15 16 17 17 15 13 12 11 10 9 9 10 11 12 14 15 15 15 15 15 16 16 15 15 16 16 16 15 14 14 13 13 13 12 12 13 12 11 11 11 11 11 12 12 13 14 15 16 16 15 15 14 13 13 15 16 17 20 22 24 25 27 28 29 29 28
13 12 11 10 9 9 11 12 11 8 5 3 4 7 8 8 10 13 13 13 14 14 13 12 11 11 10 9 9 9 9 10 12 14 15 15 15 15 14 14 14 13 13 14 14 13 13 13 13 13 13 12 12 12 12 11 10 11 11 11 12 12 12 12 13 14 14 14 14 13 12 12 13 15 16 18 20 23 24 25 27 29 31 31 31
14 11 11 10 10 10 11 12 11 8 5 3 4 6 6 6 7 10 12 12 11 11 11 10 9 9 9 9 10 10 10 11 13 14 14 14 14 14 14 13 12 12 12 12 12 12 12 12 12 12 12 12 12 11 11 10 10 10 10 10 10 10 10 11 11 12 12 12 12 12 12 13 14 16 18 19 21 22 24 26 27 29 30 31 30
15 13 12 11 11 11 11 11 10 7 5 5 5 5 5 5 6 7 7 7 7 8 9 9 9 9 9 10 11 12 12 12 13 13 12 12 12 13 13 13 12 11 10 11 11 11 11 11 11 11 11 10 10 9 9 8 8 8 7 7 7 8 8 9 9 10 10 10 11 12 13 14 16 17 19 21 22 23 24 25 26 27 28 28 28
17 14 14 13 12 12 12 11 9 8 7 7 6 5 5 5 6 7 8 7 6 7 8 9 10 10 11 11 11 12 12 12 12 11 10 10 10 11 11 11 11 10 10 10 10 10 10 10 10 10 9 8 8 7 7 6 6 5 5 5 5 5 5 6 7 8 9 9 11 12 14 15 16 18 19 21 22 23 23 24 24 25 26 26 26
18 16 15 15 13 13 13 11 9 9 9 8 8 7 6 6 5 5 6 7 8 8 8 9 9 9 9 9 9 9 10 9 9 8 8 8 8 8 8 7 7 8 7 7 8 7 7 7 7 7 7 7 7 6 6 5 4 4 3 3 2 2 3 4 5 6 7 9 10 12 13 14 15 16 17 18 20 21 23 23 23 24 24 23 23
19 17 17 17 15 13 13 13 11 10 11 11 10 9 8 7 6 6 5 5 6 6 6 7 7 7 7 7 8 8 8 7 7 6 5 5 5 4 4 4 4 4 4 4 5 5 5 5 5 5 5 5 5 5 5 5 5 4 3 2 2 1 0 1 3 4 6 7 9 10 11 12 13 14 15 16 17 19 21 22 23 23 23 23 23
17 16 17 19 18 15 14 14 13 12 13 14 13 12 12 11 10 9 8 7 6 5 5 6 6 7 7 8 8 8 8 7 6 5 4 4 3 2 1 1 0 1 1 2 3 5 5 6 6 7 7 7 7 7 7 7 6 6 6 5 4 3 2 2 3 4 4 5 7 8 9 10 11 13 14 15 16 18 20 21 22 23 23 23 24
15 15 16 19 21 19 16 15 15 14 15 15 14 13 13 13 12 12 12 11 9 8 7 7 7 8 8 9 9 8 8 7 6 5 5 5 5 4 4 5 5 4 4 4 4 5 6 8 10 10 11 11 11 11 11 11 10 10 9 8 6 6 5 5 5 5 5 5 6 7 8 10 11 12 14 15 16 17 19 20 21 21 22 22 23
15 14 15 18 21 21 19 17 16 15 16 16 15 13 13 12 12 14 15 14 12 10 9 8 8 9 9 9 9 8 7 7 6 6 7 8 8 9 9 10 10 9 9 8 8 9 9 10 11 12 13 14 14 14 15 15 15 15 14 13 11 10 9 8 7 7 7 8 8 8 9 10 12 13 14 15 16 17 19 20 20 21 22 22 23
18 16 16 19 22 22 21 20 18 17 17 17 15 14 13 13 14 14 15 15 14 13 11 9 9 9 9 9 8 7 6 5 5 6 7 8 9 10 11 12 12 12 13 13 13 13 13 13 13 14 14 14 15 15 16 16 17 18 18 18 16 14 12 11 10 8 9 10 10 10 11 12 13 13 13 14 16 17 18 20 20 21 23 23 24
21 19 19 20 21 21 20 21 20 19 18 17 16 14 14 15 15 15 15 15 15 14 12 11 10 10 9 9 7 6 5 6 6 6 7 8 9 10 11 11 12 13 14 14 14 15 15 15 15 15 16 17 17 17 17 17 17 18 18 19 20 18 16 13 11 10 10 11 11 12 12 12 13 12 13 14 15 16 18 21 22 23 25 26 26
24 22 21 21 20 18 18 19 20 19 18 17 16 15 16 16 16 15 15 15 15 15 14 12 11 11 10 9 7 6 6 7 7 8 8 9 9 10 10 11 12 13 13 13 13 13 14 14 14 14 15 16 17 17 17 17 17 17 17 17 18 20 18 14 12 12 11 11 11 12 12 12 12 12 13 14 16 18 21 23 24 26 27 27 27
26 24 22 21 20 19 19 20 21 20 19 18 16 16 17 18 18 17 16 16 16 16 15 13 12 12 11 10 8 7 7 8 9 9 9 10 11 11 11 11 11 12 12 12 12 12 13 13 12 12 13 14 15 15 15 15 15 15 15 14 15 17 18 15 12 12 11 10 11 11 10 11 12 13 15 16 18 20 22 24 25 25 26 27 27
27 26 25 23 22 21 20 20 21 21 21 20 19 18 19 19 19 18 17 17 17 17 16 14 13 13 12 10 9 8 8 9 10 10 10 11 12 12 13 13 13 13 13 13 13 13 13 12 12 12 12 12 12 12 12 12 11 11 12 12 12 14 16 14 11 10 10 9 9 9 9 11 13 15 17 18 19 21 23 24 25 25 26 27 28
27 27 27 26 24 23 21 21 22 23 22 21 21 21 21 20 20 19 18 17 17 17 16 15 14 14 13 11 10 9 10 10 11 11 12 12 13 13 14 15 15 14 14 13 13 12 11 11 10 9 9 9 9 9 9 10 11 11 11 10 9 11 13 11 9 8 8 7 8 9 11 13 14 16 18 20 21 23 24 25 26 27 26 27 28
27 27 28 27 27 25 23 22 23 23 21 21 21 22 22 21 20 20 18 17 18 18 17 16 16 15 14 13 12 11 11 12 12 13 14 14 14 14 15 15 15 14 12 11 10 9 8 7 7 6 6 6 7 9 10 11 12 12 10 8 8 9 9 8 7 6 7 7 9 11 12 14 16 17 20 21 22 24 25 26 27 27 27 28 28
27 28 28 28 28 28 26 24 24 23 22 22 22 23 23 22 22 21 19 18 19 19 18 18 17 17 16 15 14 13 13 13 14 15 15 15 15 16 15 15 13 12 10 9 8 7 7 6 5 5 6 7 8 10 11 11 11 10 7 6 7 7 6 5 5 6 7 9 11 12 13 15 17 18 20 22 23 24 25 26 26 26 27 28 29
29 29 28 28 29 29 28 27 25 25 24 24 24 24 24 23 23 22 21 20 20 21 20 19 19 18 18 17 16 16 16 16 16 16 16 16 16 16 14 13 12 10 9 8 8 7 6 6 6 6 7 8 9 9 9 8 6 5 5 5 5 5 4 5 6 8 9 10 12 13 14 15 17 19 21 22 23 24 24 25 25 26 27 27 28
31 30 30 29 29 29 30 29 27 26 25 25 26 26 26 25 25 24 23 23 22 22 21 21 20 20 19 19 18 18 18 18 17 17 17 17 16 14 13 12 11 10 9 8 8 8 7 7 7 7 7 7 7 7 6 5 4 4 4 4 4 4 6 7 8 9 10 11 12 14 15 16 18 20 21 22 22 22 23 24 25 26 26 26 27
32 32 31 30 29 29 30 30 29 28 26 26 27 28 27 26 26 25 25 24 23 22 22 22 21 21 21 20 20 20 19 18 18 18 17 16 15 14 14 13 11 11 10 9 9 8 8 7 7 7 7 7 7 6 6 5 4 4 4 5 5 6 7 8 9 10 11 12 13 14 16 17 19 20 20 21 21 22 23 24 24 25 25 26 26
33 33 33 32 31 30 30 31 30 29 28 27 27 28 27 27 26 25 24 24 23 23 23 22 22 22 22 21 21 20 19 18 19 19 17 16 16 15 14 13 12 11 10 10 9 8 8 7 7 7 7 7 7 6 6 5 4 4 5 6 7 8 9 9 10 11 12 13 14 16 17 19 20 20 20 21 21 21 23 23 24 24 24 24 25
32 33 33 33 32 30 30 30 30 30 30 29 29 28 28 27 26 25 25 24 24 24 23 23 23 23 22 21 21 20 19 18 18 17 17 17 17 16 14 13 12 11 10 9 9 8 7 7 7 8 8 7 7 6 5 5 5 6 7 8 8 9 10 11 12 13 13 14 16 17 18 19 20 19 20 20 21 22 23 23 23 23 23 23 23
33 33 33 33 33 31 31 31 31 31 32 31 30 30 29 28 27 27 26 26 26 25 24 24 24 23 23 22 21 20 18 18 18 19 19 18 17 16 15 13 12 11 11 10 9 8 8 8 8 8 8 7 6 5 5 6 6 7 8 9 9 10 12 12 13 14 14 15 17 18 18 19 19 19 20 21 21 21 21 21 21 22 21 21 22
33 33 33 34 34 33 32 31 31 32 33 32 32 32 31 30 30 29 28 28 28 27 26 26 25 24 24 22 21 20 19 19 21 21 21 19 18 16 15 13 12 12 11 11 10 10 10 10 9 8 7 7 6 6 7 7 8 8 9 10 10 11 12 13 14 15 16 17 17 18 18 18 19 19 20 20 20 20 21 20 20 21 20 20 21
32 32 33 35 35 33 32 31 31 31 32 32 33 33 33 32 32 31 30 30 30 29 28 28 27 25 24 22 21 21 21 22 23 22 21 20 18 17 15 14 14 13 13 12 12 12 11 11 10 9 8 8 8 8 9 9 9 9 10 11 11 12 14 15 16 16 17 17 17 17 17 18 19 19 20 20 20 20 20 20 20 20 20 20 21
Wind_Direction
61 34 20 16 17 19 14 5 354 317 276 261 253 246 240 237 231 224 222 220 218 217 217 218 217 214 213 214 212 209 209 212 213 212 213 215 217 219 222 226 231 237 241 246 251 254 254 256 262 266 269 271 274 276 279 281 284 288 287 280 274 273 271 265 265 279 289 297 305 315 328 334 337 345 346 344 349 350 349 351 348 341 334 327 323
65 39 17 19 28 35 39 39 36 12 321 278 257 248 241 237 232 225 223 221 218 216 216 217 217 211 207 209 207 206 208 211 213 213 213 214 215 216 218 220 224 230 235 241 244 246 252 259 267 269 269 270 273 274 276 278 279 281 281 281 280 280 277 271 270 277 289 299 310 319 330 337 339 345 347 346 349 352 353 355 355 353 349 343 339
68 59 16 11 36 48 53 58 63 57 43 24 325 265 247 240 234 228 223 220 217 214 211 211 211 206 201 202 203 204 207 208 211 213 213 212 212 212 213 212 213 217 223 227 232 236 246 259 267 264 259 261 262 261 262 262 263 269 276 285 289 290 291 285 276 275 284 297 309 319 328 335 338 343 347 349 355 1 4 4 4 4 1 356 354
82 75 37 24 50 59 60 65 69 67 65 57 49 61 176 211 218 218 216 212 211 212 213 213 211 203 196 194 197 201 204 205 208 212 213 212 210 209 209 209 209 213 220 222 221 230 242 250 252 245 237 241 245 246 249 252 256 263 271 282 291 295 298 294 286 281 282 292 306 317 324 326 330 340 349 350 356 4 4 3 1 357 356 355 353
105 98 92 71 71 72 72 72 71 70 70 68 65 72 92 128 164 185 197 196 193 199 204 204 203 200 194 191 191 194 198 200 203 206 208 208 207 207 207 206 205 206 205 197 194 209 227 231 232 231 233 236 231 232 239 244 249 255 258 266 278 287 292 294 295 293 290 294 303 312 319 322 328 342 354 352 350 351 351 354 356 352 348 345 345
124 117 118 98 84 83 84 83 81 78 76 75 75 79 87 103 122 141 163 176 182 188 188 186 189 189 186 186 184 184 186 190 193 193 192 190 190 193 194 188 184 184 180 178 186 198 203 214 227 232 235 231 219 219 229 232 234 238 241 249 259 265 271 275 280 284 289 294 300 309 320 330 336 342 350 352 351 351 347 348 350 348 343 340 340
125 120 127 116 95 90 92 93 92 88 84 83 84 87 92 99 107 114 128 146 160 169 170 171 178 179 176 176 174 173 174 177 180 178 174 172 169 167 163 157 158 160 156 152 159 171 180 201 221 226 225 220 212 213 223 232 236 237 234 233 237 247 257 264 267 274 289 300 307 316 326 336 338 338 341 345 351 355 353 350 344 340 341 340 339
115 120 130 119 99 93 96 97 96 93 91 92 93 93 90 87 91 99 109 119 129 139 145 150 159 162 162 161 160 160 159 156 156 158 158 158 154 150 149 149 148 142 133 131 143 158 173 190 204 212 213 210 209 209 217 233 245 247 239 232 239 251 258 264 272 282 295 307 315 321 327 331 333 336 340 349 356 352 349 345 337 334 336 335 337
112 118 125 116 105 102 101 99 97 97 95 93 93 95 92 86 86 91 96 100 106 116 123 126 129 132 135 135 136 138 137 135 136 139 142 142 141 139 139 138 133 129 131 138 149 159 170 180 189 198 205 211 221 232 237 244 252 258 253 251 263 274 275 272 268 276 290 300 307 314 322 328 335 342 346 353 352 338 335 338 335 334 333 330 335
121 120 122 121 120 117 110 104 99 95 93 90 90 90 90 90 91 90 93 97 101 107 114 116 118 120 120 120 121 121 119 119 123 127 130 132 132 130 129 127 126 131 141 150 159 169 179 187 193 205 222 236 248 257 263 262 262 264 264 269 278 284 286 284 277 282 293 299 307 316 326 337 349 353 344 337 336 333 337 343 341 339 338 334 335
127 126 127 131 132 128 120 112 103 93 87 84 83 80 74 74 83 88 94 106 113 114 116 117 117 117 116 114 113 112 110 110 113 115 117 120 122 122 123 125 130 136 148 161 171 182 196 207 213 218 232 246 252 256 260 259 258 259 260 269 280 289 296 294 289 298 304 309 323 338 350 359 360 353 339 335 340 344 348 354 353 350 350 344 333
133 132 133 135 134 129 122 114 104 95 86 77 73 71 57 32 55 95 118 131 136 130 121 117 115 116 116 114 111 107 103 101 102 104 103 104 105 109 114 120 130 141 154 171 184 195 204 211 215 216 218 222 232 241 239 232 227 215 210 206 147 99 57 63 59 32 6 351 6 15 8 6 11 8 359 354 355 355 356 1 4 358 352 345 329
138 137 138 137 133 126 119 110 101 93 84 77 75 80 99 136 154 152 149 148 146 136 126 120 119 120 119 113 107 100 94 88 88 89 89 90 93 98 108 119 134 148 160 170 176 179 182 187 193 194 191 188 192 199 191 179 159 141 134 126 117 108 93 82 64 44 29 22 37 40 24 23 31 29 18 7 1 360 0 3 7 2 351 342 332
145 144 144 141 133 126 118 106 97 87 77 72 72 101 139 154 157 156 154 151 145 136 129 126 122 119 116 110 103 95 88 82 78 77 79 82 88 99 115 130 139 142 145 149 151 151 151 155 160 157 155 158 159 156 152 147 141 137 132 120 105 96 89 77 64 55 46 46 56 60 53 48 47 41 28 14 6 0 0 5 8 360 347 338 333
152 151 150 147 140 131 121 108 99 90 83 85 104 130 138 140 142 146 148 144 138 132 128 127 122 116 112 110 104 98 91 85 78 75 75 74 79 97 120 136 144 143 139 136 135 133 129 128 129 126 129 135 132 126 120 120 124 125 118 105 92 85 80 72 68 67 65 68 72 71 69 61 52 46 31 18 12 4 2 8 6 357 348 344 342
159 157 155 152 148 138 123 114 108 106 113 127 134 135 135 135 139 147 146 137 128 123 123 122 119 115 112 111 107 101 94 88 79 74 73 71 73 99 134 148 155 150 142 136 130 123 114 111 114 112 113 114 106 100 100 105 114 116 109 99 89 84 81 79 80 82 81 82 80 74 70 60 50 44 32 23 18 9 4 5 4 3 359 353 349
166 164 162 157 152 141 128 120 118 120 125 131 137 139 138 138 139 142 143 134 123 117 115 115 116 115 114 113 110 103 93 84 78 75 76 83 113 155 162 161 161 157 151 148 142 131 116 103 108 114 112 105 92 88 94 103 110 111 107 101 95 91 90 89 91 90 86 82 76 68 62 54 49 43 33 29 22 13 12 12 8 8 7 3 351
175 172 168 161 154 142 132 126 125 127 124 125 130 133 131 131 132 132 133 131 126 122 118 119 121 120 116 112 108 101 90 83 80 80 86 106 144 159 163 162 157 153 149 146 141 130 117 111 112 112 106 97 86 85 91 95 102 106 106 104 98 93 93 94 94 92 87 79 68 60 54 48 45 42 37 35 29 24 28 26 16 12 11 9 352
184 182 173 162 154 144 133 128 129 131 128 125 125 122 118 124 128 125 123 125 130 132 131 129 125 120 114 108 102 96 91 86 83 82 87 101 125 142 153 155 149 143 138 134 125 114 111 109 103 96 90 88 88 87 85 86 93 97 99 100 95 89 87 87 83 77 68 57 47 42 42 42 43 43 40 37 33 31 33 33 26 20 15 7 354
190 187 176 162 154 146 137 130 129 130 131 128 123 113 109 121 128 124 121 129 138 142 140 133 125 118 111 105 99 95 92 92 90 88 91 98 111 126 136 139 137 135 132 129 123 116 111 104 96 90 89 89 89 88 87 89 92 93 93 94 91 88 85 79 70 59 49 47 43 40 42 41 41 41 37 35 36 35 34 33 30 26 18 1 353
190 185 176 163 155 149 143 137 132 129 129 128 122 112 107 116 127 127 125 136 144 142 137 130 123 115 110 106 100 96 93 94 95 95 95 97 102 112 120 123 127 129 126 121 117 113 108 103 99 97 96 94 91 89 88 89 91 92 91 90 90 89 84 75 67 59 54 53 49 46 45 42 39 39 37 35 35 35 33 32 29 27 23 7 348
189 184 177 167 158 153 150 149 146 140 136 132 127 119 112 114 122 129 131 138 141 138 133 130 123 115 109 105 101 97 94 94 97 98 97 94 94 99 106 111 117 121 118 114 111 109 107 104 102 100 96 93 90 86 86 87 88 88 87 87 87 85 81 76 70 63 57 53 48 44 41 38 37 36 34 33 30 28 27 26 23 22 22 17 2
188 185 180 173 166 160 157 160 162 159 152 146 142 134 126 121 124 131 136 137 138 137 134 131 126 118 111 105 100 96 94 95 98 99 99 95 92 92 98 104 110 112 111 109 108 107 105 103 100 97 94 90 87 86 87 86 85 83 82 82 82 81 80 76 68 60 55 49 45 42 39 36 35 32 29 27 24 22 22 22 18 16 15 15 15
190 187 184 182 179 175 166 163 169 173 163 158 160 155 145 138 135 137 141 140 139 140 139 137 131 125 119 111 103 96 94 96 99 101 101 99 95 94 98 103 105 104 103 104 107 107 104 100 98 97 95 92 92 92 91 89 86 84 83 82 82 82 78 70 62 55 52 47 44 42 40 38 36 33 29 24 21 19 19 19 17 13 10 10 13
191 190 190 189 188 190 181 168 171 181 172 163 169 169 161 154 150 148 149 148 146 146 147 145 139 132 127 119 110 102 97 98 103 105 104 102 100 99 101 104 103 100 99 103 108 107 103 100 101 102 100 99 99 97 94 89 86 84 81 78 77 72 65 60 55 51 48 46 44 44 45 43 40 34 29 23 18 16 14 13 11 9 5 4 4
190 193 197 195 195 198 189 177 178 188 184 169 173 174 170 163 158 156 155 154 154 154 153 152 146 138 134 129 121 112 104 104 110 111 108 107 105 104 106 107 104 100 101 107 111 110 106 103 103 104 103 100 98 94 89 85 80 77 72 68 66 63 58 55 52 50 51 50 49 49 49 45 38 31 25 20 16 14 12 9 7 6 4 2 360
193 198 200 201 202 199 187 181 186 194 197 195 176 173 175 169 162 163 162 158 158 160 159 157 152 146 141 135 128 122 115 115 118 118 115 112 110 109 112 114 111 107 108 113 117 116 112 107 104 102 101 99 96 93 90 87 81 75 70 65 62 59 56 52 48 49 51 51 49 49 45 37 29 24 20 18 16 14 11 8 6 6 5 3 0
197 199 199 199 200 195 186 186 191 195 200 205 180 170 174 167 157 162 168 167 165 163 164 164 159 152 144 136 130 126 123 123 123 123 122 120 116 116 119 122 122 119 115 117 120 122 119 114 109 106 106 105 103 99 96 93 86 78 73 67 62 58 53 48 45 46 47 45 42 39 33 26 21 18 15 14 14 12 9 7 5 3 1 1 360
200 199 198 198 196 192 191 195 198 196 194 195 188 174 162 143 122 128 148 164 167 163 163 161 155 147 142 136 132 130 129 129 127 126 128 126 123 123 125 127 128 126 122 119 120 121 121 120 118 117 116 114 113 110 106 102 96 90 83 74 67 62 56 48 45 44 42 39 33 27 22 18 15 12 9 9 9 8 5 3 0 358 357 357 355
201 199 200 198 194 193 198 202 202 199 196 197 200 189 165 145 124 112 114 122 126 132 139 142 140 138 137 133 130 128 128 128 128 128 129 128 126 124 123 124 127 130 130 129 126 125 127 129 130 133 133 133 134 134 131 128 121 113 106 95 81 71 59 48 42 39 34 28 23 19 16 13 9 8 6 4 3 3 360 357 355 352 351 351 347
200 201 201 198 194 196 201 203 201 198 197 202 209 201 180 167 157 139 124 118 118 120 127 133 134 136 136 134 133 131 129 127 127 126 125 123 121 117 115 115 120 127 136 141 141 141 144 146 148 151 153 155 158 159 162 164 162 157 147 137 119 86 58 40 33 30 25 20 16 14 11 7 4 2 1 357 356 355 353 351 349 347 345 344 340
202 202 201 198 197 199 202 204 205 202 198 203 214 213 202 192 183 178 170 153 143 140 141 146 149 149 149 148 147 144 141 136 134 133 131 125 119 112 105 100 105 118 137 156 165 171 175 178 184 191 196 196 194 193 195 195 197 202 206 207 211 210 51 13 12 14 11 9 8 6 3 0 356 353 351 348 345 344 344 344 342 340 338 336 334
209 206 201 199 200 204 206 207 210 208 202 205 214 217 214 211 205 198 195 192 186 183 178 174 173 169 168 167 163 159 158 156 155 159 162 157 154 148 147 149 160 158 205 221 219 222 227 232 240 242 239 239 241 237 234 233 231 230 234 236 240 249 270 297 319 334 342 346 350 350 348 346 342 338 337 336 334 333 334 334 334 333 331 329 328
217 214 206 201 202 206 209 211 213 212 208 207 210 212 215 217 213 203 199 201 205 206 200 193 189 186 183 183 181 181 183 185 189 202 214 221 228 233 240 250 257 262 272 277 273 269 266 264 264 263 261 263 264 261 257 254 250 248 247 247 251 259 266 275 284 292 299 305 313 322 327 327 325 324 324 325 325 325 326 327 327 326 325 324 322
220 219 211 204 204 207 210 213 216 216 211 206 203 204 208 211 208 202 201 203 206 208 204 197 195 194 194 195 196 199 202 207 214 221 227 235 241 244 248 254 258 263 268 270 272 274 274 274 274 272 271 273 274 275 275 272 266 262 259 256 255 255 254 258 265 270 274 280 287 296 305 311 315 315 315 317 320 321 322 323 323 322 322 322 321
217 216 211 207 207 211 215 218 219 216 212 208 205 206 208 206 203 203 204 205 206 206 204 200 199 200 200 200 203 210 218 226 232 234 236 240 244 248 252 259 265 271 274 274 272 271 270 272 274 276 277 279 281 284 287 286 282 276 268 260 255 251 248 249 254 260 266 271 277 284 292 300 308 312 311 313 317 319 319 321 322 323 324 324 323
216 216 214 211 212 217 223 223 218 215 214 212 210 211 210 207 206 207 206 205 205 205 204 202 202 202 203 205 211 221 231 233 235 239 242 245 250 255 261 268 272 276 278 279 279 279 278 277 277 277 278 279 282 286 291 293 291 288 280 269 258 250 247 248 250 254 261 269 276 282 288 294 302 308 310 312 318 322 324 325 325 326 328 328 326
219 219 218 218 218 219 219 215 212 212 213 212 211 212 211 208 209 211 209 207 207 207 207 207 207 206 206 208 213 224 229 229 233 238 243 248 256 261 266 271 272 273 277 281 282 281 280 281 280 279 277 277 280 284 288 289 287 286 286 279 264 251 246 245 247 251 259 269 276 279 283 290 300 310 315 319 324 326 327 328 329 328 328 328 326
221 221 222 222 221 217 212 209 210 212 212 210 211 212 210 208 211 214 215 215 213 211 211 214 215 211 209 211 217 225 230 234 240 248 253 258 262 266 270 275 276 276 279 283 282 276 272 271 271 272 274 276 278 280 280 280 279 277 279 279 267 250 242 240 244 250 258 265 270 274 283 295 306 314 318 321 325 326 326 327 328 327 325 323 321
223 223 223 223 222 219 216 213 213 214 213 213 214 213 211 212 214 215 217 218 215 213 215 219 219 215 215 221 228 233 237 242 250 260 267 269 269 271 275 278 277 276 279 282 281 276 271 268 268 272 275 277 280 281 280 280 283 282 280 277 263 244 237 237 241 248 254 260 269 281 293 302 307 313 317 319 322 324 325 326 326 325 323 321 319
226 225 225 224 222 221 218 216 216 216 216 217 217 215 214 215 216 217 220 221 217 216 220 224 222 220 223 230 237 242 248 254 261 268 274 276 276 275 274 272 270 270 275 279 279 275 272 270 270 272 275 278 283 288 291 294 295 293 286 273 247 231 230 234 239 247 255 267 280 290 297 304 310 315 318 320 322 323 324 324 325 324 324 323 321
227 226 226 224 221 219 218 218 219 219 218 217 216 215 215 216 216 219 223 224 221 222 226 228 227 227 231 237 245 252 259 266 271 275 278 279 277 274 269 265 264 266 269 271 269 264 261 259 260 264 274 286 293 299 302 301 295 289 279 254 225 218 225 233 241 254 267 282 292 298 304 310 314 316 318 319 320 322 322 322 322 323 323 323 324
229 229 228 225 222 220 221 222 221 220 219 218 215 213 214 216 219 223 227 227 225 228 232 233 232 233 237 244 252 260 266 272 276 279 280 278 273 269 265 260 257 256 256 255 252 247 246 250 259 273 287 297 302 303 302 297 290 280 260 227 210 214 227 240 257 275 286 294 299 303 307 311 312 314 316 318 319 320 320 319 321 323 323 323 324
229 228 227 226 224 223 223 223 223 223 223 221 218 216 218 221 224 228 231 232 231 233 236 238 237 236 241 249 256 262 269 275 278 278 277 273 267 261 253 246 241 240 240 241 241 243 251 262 275 288 295 300 302 301 296 287 276 253 221 208 212 229 252 271 286 295 298 300 302 304 305 309 311 313 315 318 318 318 318 319 320 321 322 322 322
227 226 225 224 224 223 222 222 223 224 225 223 222 221 223 226 229 232 234 235 236 236 238 239 239 240 245 252 258 264 271 276 278 276 272 267 258 245 234 229 228 229 232 237 243 250 261 271 279 287 292 291 289 283 270 252 232 215 217 235 257 278 293 300 301 301 301 300 301 304 305 308 311 313 316 317 318 318 317 318 319 319 320 321 320
226 224 223 222 222 223 223 222 222 223 224 225 225 224 226 228 231 233 235 235 236 237 237 238 240 243 248 253 261 268 273 275 275 273 266 254 237 225 221 221 223 227 233 241 247 254 263 270 274 278 278 269 260 249 235 227 229 239 262 288 301 307 310 309 305 304 304 302 303 306 308 309 312 315 316 317 318 316 316 316 318 318 319 319 318
227 224 222 222 223 223 224 223 221 221 223 225 226 227 228 230 232 234 235 235 235 236 237 239 242 247 252 258 264 270 273 272 270 266 253 235 221 217 219 222 225 230 238 244 249 255 262 265 265 264 259 247 238 231 228 238 260 282 298 309 314 314 314 312 307 305 305 305 306 308 310 311 313 316 316 316 316 315 314 315 317 317 318 318 317
226 224 222 222 222 223 223 222 220 219 221 224 227 229 230 232 234 236 237 236 236 237 238 241 246 250 256 262 267 270 269 266 259 248 232 220 217 218 221 223 228 234 239 243 246 249 252 251 248 243 235 227 225 231 244 265 287 299 304 309 312 311 309 308 306 304 305 306 309 311 312 312 313 314 314 315 314 313 313 314 315 315 316 316 316
225 223 221 221 221 222 224 224 222 221 222 223 227 230 232 234 236 238 238 239 239 240 242 245 249 254 259 264 267 266 261 252 240 227 217 215 217 219 221 224 229 234 237 238 237 236 234 232 228 223 220 222 232 247 267 280 289 295 298 300 302 303 303 302 300 301 304 307 310 312 312 311 311 313 313 313 313 312 312 312 313 314 315 315 315
223 221 221 221 221 223 226 226 225 224 224 224 226 229 233 235 237 239 240 241 241 243 244 247 251 255 259 262 263 259 250 237 225 217 214 215 217 219 221 224 227 228 227 226 224 222 219 218 217 219 225 237 250 262 272 278 281 285 288 291 293 296 297 296 297 300 304 307 309 311 311 310 311 312 312 312 312 312 312 312 312 313 313 312 312
221 220 219 221 222 224 224 225 225 225 225 225 227 230 233 235 237 239 241 241 242 244 245 248 252 256 259 260 257 250 239 227 218 214 214 216 217 218 220 222 221 219 218 217 216 215 215 216 221 230 238 248 256 262 266 270 274 278 281 285 290 292 293 296 299 301 304 306 308 309 310 310 311 311 311 312 313 313 313 313 313 312 310 310 311
Height
810 809 807 806 804 803 801 800 799 799 800 800 800 800 799 799 800 801 802 803 805 807 809 812 814 814 814 816 817 819 820 822 824 825 827 828 830 831 832 833 835 836 837 838 839 840 840 841 841 842 843 843 844 844 844 844 844 844 844 844 844 845 845 845 844 842 841 842 842 841 841 839 838 838 837 835 834 833 832 831 830 830 829 829 829
809 808 807 806 805 803 801 800 800 801 801 801 801 800 799 799 799 800 801 801 803 804 807 811 813 811 811 812 815 816 818 819 821 823 825 826 827 829 830 831 832 834 835 836 837 838 839 840 840 841 841 842 843 843 843 843 842 842 842 842 842 843 843 844 844 842 840 840 840 840 840 839 838 837 836 835 833 832 831 830 829 829 828 828 828
809 808 807 806 805 803 802 801 800 800 801 801 800 800 799 799 799 799 800 801 802 804 806 809 810 808 808 810 812 814 816 817 820 822 823 825 825 826 827 829 830 831 832 833 835 836 837 838 839 840 840 841 842 842 842 841 841 841 841 841 841 841 842 843 843 842 840 839 839 839 839 838 837 836 836 835 833 831 830 829 828 828 827 827 827
809 808 807 806 805 804 803 802 801 800 800 800 800 800 799 798 798 799 799 800 801 803 805 807 807 806 806 808 810 812 814 816 818 821 822 823 823 824 825 827 828 829 830 832 834 835 836 837 838 839 840 840 841 841 840 840 840 840 840 840 840 841 841 841 842 841 840 838 838 838 838 837 837 836 835 834 832 831 829 828 828 827 827 827 826
808 808 807 807 805 804 803 803 802 801 801 800 800 800 800 799 798 798 799 800 801 802 804 805 805 805 806 807 808 810 812 815 817 819 821 821 821 822 824 825 827 828 830 831 832 834 835 837 838 839 839 839 840 839 839 839 839 838 838 838 839 839 839 840 840 840 840 839 837 837 837 837 836 835 834 833 831 829 828 827 827 826 826 826 826
808 808 808 807 806 805 804 803 803 802 802 802 800 800 801 801 800 799 799 799 800 801 802 804 805 805 806 806 807 808 811 813 815 817 818 819 820 821 822 823 825 827 829 830 830 831 833 836 837 838 838 838 838 838 838 838 837 837 837 837 837 837 837 838 839 839 839 838 837 836 836 836 835 835 834 832 831 829 827 826 826 825 825 824 824
808 808 808 807 806 806 805 804 804 803 803 803 802 801 803 804 802 801 800 800 800 800 801 802 804 804 805 805 806 807 809 811 813 815 816 817 818 819 820 822 825 827 827 827 828 830 833 835 837 837 837 837 837 836 836 836 836 836 836 835 835 835 836 836 837 837 837 837 837 836 836 835 835 834 833 832 830 829 827 825 824 824 824 823 822
809 809 808 807 807 806 806 806 805 805 805 804 804 804 805 806 804 804 803 801 801 800 800 801 802 803 804 805 806 808 810 811 812 813 815 816 817 818 820 822 824 825 824 825 829 832 834 835 836 836 836 836 835 835 835 835 835 835 835 835 834 834 835 835 835 836 836 836 836 836 835 835 834 833 832 831 830 828 827 826 824 823 822 821 821
809 809 808 808 808 808 807 807 807 806 806 806 806 806 807 808 808 807 806 804 803 802 801 801 803 804 805 806 808 809 811 811 812 813 814 816 817 819 820 822 822 822 822 826 830 832 834 835 835 835 835 835 835 834 834 835 835 835 835 834 834 833 833 834 834 834 835 835 835 835 834 834 833 832 831 830 830 829 827 826 824 823 821 819 819
809 809 809 809 809 809 809 808 808 807 807 807 807 807 809 810 811 810 809 808 808 806 805 805 806 807 808 808 809 810 812 813 813 814 815 816 817 818 819 820 821 822 825 828 831 833 834 834 835 835 835 834 834 834 834 834 834 834 834 834 833 833 832 832 832 833 833 833 833 833 833 833 833 832 831 830 829 828 826 825 824 822 820 817 817
810 810 810 810 810 810 810 809 809 808 808 808 808 808 809 811 811 812 812 812 812 811 810 809 809 810 810 811 812 813 814 815 814 815 815 815 816 816 818 820 822 825 828 830 831 833 834 834 834 834 834 833 833 833 833 833 833 833 833 832 832 832 831 831 831 832 832 832 832 832 832 833 833 832 831 830 828 827 826 825 824 822 820 819 817
811 811 811 811 811 811 811 810 810 810 810 809 809 809 810 810 811 813 814 815 814 813 813 811 811 811 812 813 814 814 814 814 814 814 814 814 815 816 818 821 823 826 828 830 831 832 833 833 833 833 833 832 832 832 832 832 832 832 832 832 831 831 831 831 831 831 832 832 832 832 832 832 832 832 831 829 828 827 826 825 825 823 822 821 819
811 811 811 811 811 811 811 811 810 810 810 810 810 811 812 812 813 814 815 815 814 813 812 811 812 813 813 813 813 812 812 812 813 813 813 814 816 817 819 822 824 826 828 829 831 831 832 832 832 832 832 832 832 832 832 832 832 832 832 831 831 831 831 831 831 831 831 831 831 832 832 832 832 832 831 829 828 827 826 826 825 824 823 821 819
811 811 812 812 812 812 812 811 811 810 810 810 811 812 813 814 814 815 815 814 814 813 813 812 813 813 813 812 811 810 811 812 812 813 814 815 817 819 821 823 825 827 828 829 830 831 832 832 832 832 832 832 832 832 832 832 832 832 831 831 831 831 831 831 831 831 832 832 832 832 832 832 832 831 830 829 828 827 826 825 825 824 823 821 819
811 811 812 812 812 812 812 812 812 811 811 810 811 812 813 814 814 814 814 814 813 813 813 813 813 813 812 811 810 810 812 813 814 814 816 817 818 820 822 824 825 827 828 829 830 831 832 832 832 832 832 832 833 832 832 832 832 831 831 831 831 831 831 832 832 832 832 833 833 833 833 833 832 831 830 829 828 827 826 825 825 823 822 820 819
811 811 811 812 812 812 812 812 812 812 812 811 812 813 814 815 815 814 814 813 813 812 812 813 812 812 812 811 811 812 813 815 816 816 817 818 820 821 823 824 826 827 828 830 830 831 831 831 832 832 832 832 832 832 832 832 831 831 831 831 832 832 832 832 833 833 833 834 834 833 833 832 832 831 830 829 828 827 826 825 824 822 821 820 818
810 811 811 812 812 812 813 813 813 813 813 813 813 814 815 816 815 815 814 813 813 812 813 813 813 813 813 813 813 814 815 817 818 818 819 820 821 823 824 825 826 827 828 829 830 830 831 831 832 832 832 833 832 832 832 832 831 831 831 832 832 832 833 833 834 834 834 834 834 834 833 833 832 831 830 828 827 826 825 824 823 822 821 820 819
810 811 811 812 812 812 813 813 813 814 814 814 814 815 816 816 816 815 814 813 813 814 814 815 815 815 815 816 816 817 818 819 820 820 821 822 822 824 824 825 826 827 828 829 829 830 831 831 832 832 832 832 832 832 832 832 832 831 831 832 832 832 834 835 835 835 835 835 835 834 833 833 832 831 830 829 827 826 825 824 824 823 822 822 821
809 810 811 812 812 813 813 814 814 814 815 815 815 816 817 817 816 815 815 814 814 815 815 816 817 817 818 818 819 820 820 821 822 822 822 823 823 824 825 825 826 827 828 829 829 830 831 831 832 832 832 832 832 832 832 832 831 832 832 832 832 833 835 835 835 836 835 835 835 834 834 833 832 831 830 829 828 827 826 825 825 824 823 823 823
809 810 811 812 812 813 814 814 814 815 815 816 816 816 816 817 816 816 815 815 815 816 816 817 818 819 820 821 821 822 822 823 823 824 824 824 825 825 825 826 826 827 828 829 829 830 831 831 832 832 832 832 832 832 832 832 832 832 833 833 833 835 836 836 836 836 836 836 835 834 834 833 832 832 831 830 829 828 827 827 825 824 824 824 823
808 809 810 811 812 813 814 814 815 815 816 816 816 817 817 817 817 817 816 816 816 817 818 819 820 821 822 823 823 824 824 825 825 826 826 826 827 827 827 827 827 828 829 830 830 831 832 832 833 833 833 833 833 833 833 833 833 834 834 834 835 836 837 837 837 837 837 836 836 835 834 834 833 832 831 830 830 829 828 827 826 825 825 824 824
808 809 810 811 812 813 813 814 815 815 816 816 817 817 817 818 818 818 817 817 817 818 819 820 822 823 824 825 825 825 826 827 827 828 828 828 829 829 828 828 829 829 830 831 831 832 833 833 834 834 835 834 834 835 835 835 835 835 835 836 837 837 838 838 838 837 837 836 836 835 834 833 832 831 831 830 829 828 828 827 827 826 826 825 824
808 809 810 811 812 813 813 814 815 816 816 817 817 818 818 818 818 818 818 818 818 819 820 821 823 824 825 826 827 827 827 828 828 829 830 830 830 830 830 830 831 831 831 832 832 833 834 835 835 836 836 836 836 836 836 836 836 836 837 838 838 838 838 838 838 838 837 836 835 834 833 833 832 831 830 830 829 829 828 828 827 826 826 825 823
808 809 810 811 812 812 813 814 815 816 817 817 818 818 818 819 819 819 819 820 820 821 822 822 823 825 826 827 827 828 828 828 829 830 830 831 831 831 832 832 832 833 833 833 834 835 835 836 837 837 837 837 837 837 837 837 837 838 839 839 839 839 839 838 838 838 837 836 835 834 833 833 832 832 831 831 831 830 829 829 827 826 825 823 822
807 808 809 810 811 812 813 814 815 815 816 817 817 818 818 819 819 820 820 820 821 822 823 823 824 825 826 827 828 828 829 829 829 830 831 832 832 832 833 833 833 834 834 834 835 836 837 837 838 838 838 838 838 838 838 838 839 839 839 839 839 839 839 838 838 837 836 835 835 834 834 834 834 834 833 833 832 830 829 828 826 825 823 821 820
807 808 809 809 810 811 812 813 814 815 815 816 816 817 818 819 819 820 820 821 821 822 823 824 825 826 826 827 828 828 829 829 830 831 831 832 833 833 834 834 835 835 835 836 837 837 838 838 839 839 839 839 839 839 839 839 839 840 840 839 839 839 838 838 837 836 836 836 836 835 836 836 835 835 834 833 832 830 828 827 825 823 822 820 818
807 808 808 809 810 810 811 812 813 814 814 815 816 816 817 818 819 819 820 820 821 822 823 824 825 825 826 827 828 828 829 830 831 831 832 833 834 834 835 836 836 837 837 837 838 838 839 839 839 839 839 839 839 839 839 839 840 840 840 839 839 839 839 838 837 837 837 837 837 837 837 836 836 835 834 833 831 830 828 827 825 822 821 819 816
806 807 808 808 809 809 810 812 812 813 814 814 815 816 816 817 818 818 819 820 820 821 822 823 824 825 826 826 827 828 829 830 831 832 833 833 834 835 836 837 837 838 838 838 839 839 839 839 839 840 840 840 840 840 840 840 840 840 840 840 840 840 839 839 839 838 838 838 838 838 837 837 836 835 834 832 831 830 828 826 824 822 821 819 817
805 806 807 808 809 809 810 811 811 812 813 813 814 815 816 817 818 818 819 820 820 821 822 823 824 825 826 827 827 828 829 830 831 832 833 834 835 836 837 837 838 838 838 839 839 839 840 840 840 840 840 841 841 841 841 841 841 841 841 841 841 841 841 840 840 840 839 839 839 838 837 837 835 834 833 832 831 830 828 827 825 823 822 820 818
804 805 806 808 808 809 810 810 811 812 812 813 814 815 816 817 817 818 819 820 821 821 822 823 824 825 826 827 828 829 830 831 832 833 834 835 836 836 837 837 838 838 838 839 839 840 840 840 840 841 841 841 842 842 842 842 842 842 842 842 842 842 842 841 841 840 840 839 839 838 837 836 835 834 833 832 831 830 829 827 826 824 822 821 819
803 804 805 807 808 809 810 810 811 812 812 813 814 814 815 816 817 818 819 820 821 822 823 824 825 826 827 828 829 829 831 831 832 833 834 835 835 836 836 837 837 838 838 839 839 840 840 841 841 841 841 842 842 842 842 842 842 842 842 842 842 842 842 841 841 840 840 839 839 838 837 836 835 834 833 832 831 830 829 828 826 825 823 822 820
801 803 804 806 807 809 810 810 811 812 813 813 814 815 816 817 817 818 820 820 822 823 823 824 825 826 827 828 829 830 831 832 833 833 834 834 835 835 836 836 837 837 838 838 839 840 840 840 841 841 841 841 841 842 842 842 842 842 842 842 842 841 841 841 840 840 839 839 838 838 837 836 836 835 834 833 831 830 828 827 826 824 823 821 820
800 801 803 805 806 808 809 810 811 812 812 813 814 815 816 817 818 819 820 821 822 823 824 825 825 826 827 828 829 830 831 831 832 833 833 834 834 835 835 836 836 837 838 838 839 839 840 840 840 840 840 841 841 841 841 841 841 841 841 841 841 840 840 840 839 839 839 838 838 838 837 836 836 834 833 832 831 830 828 827 825 824 822 820 819
798 800 801 803 805 806 807 809 810 811 812 813 814 815 816 817 817 818 820 821 822 822 823 824 825 826 827 827 828 829 830 831 832 832 833 833 834 834 835 835 836 836 837 837 838 838 838 839 839 839 839 839 839 840 840 840 840 840 839 839 839 839 839 838 838 838 838 838 837 837 836 836 835 834 833 832 831 829 828 826 825 824 822 820 818
797 799 800 802 803 805 806 807 808 810 811 812 813 814 815 815 816 817 818 819 820 821 822 823 824 825 826 827 827 828 829 830 831 831 832 832 833 834 834 834 835 835 836 836 836 837 837 837 837 837 838 838 838 838 838 838 838 838 837 837 837 837 837 837 837 837 837 837 836 836 836 835 834 833 832 831 830 829 827 826 824 823 821 819 816
796 797 799 800 802 803 804 806 807 808 809 810 811 812 813 814 815 816 817 818 819 820 821 822 823 824 825 826 826 827 828 829 829 830 831 831 832 832 833 833 833 834 834 835 835 835 836 836 836 836 836 836 836 836 836 836 836 835 835 835 835 835 835 835 835 835 835 835 835 835 834 834 833 832 831 830 829 827 826 824 823 821 819 817 814
794 795 797 798 800 801 802 804 805 806 808 809 810 811 812 813 814 815 816 817 818 819 820 821 822 823 824 824 825 826 827 827 828 829 829 830 830 831 831 832 832 833 833 833 833 833 833 834 834 834 834 834 834 834 834 833 833 833 833 833 833 833 833 833 834 834 834 834 834 833 833 832 832 831 829 828 827 825 824 822 820 818 816 814 812
792 793 795 796 798 799 800 802 803 805 806 807 809 809 810 811 813 813 814 815 816 818 819 820 821 822 822 823 824 825 826 827 827 828 829 829 829 830 831 831 831 831 831 831 831 831 831 831 831 832 832 832 832 831 831 831 831 830 830 830 830 831 831 831 832 832 832 832 832 831 831 831 830 828 827 826 824 823 821 819 817 815 813 812 810
789 791 793 794 796 797 798 800 802 803 804 806 807 808 809 810 811 812 813 814 815 816 818 819 820 820 821 823 824 824 825 826 826 827 828 828 829 829 829 830 829 829 829 829 829 829 829 829 829 829 829 829 829 829 829 829 828 828 827 827 827 828 829 829 830 830 830 830 830 830 829 828 827 826 825 823 822 821 819 817 816 814 811 810 808
786 789 790 792 794 795 796 798 800 801 803 804 805 806 808 809 810 811 812 813 814 815 816 818 818 819 821 822 822 823 824 825 825 826 826 827 827 827 827 827 827 827 827 827 827 827 827 827 827 827 827 827 827 827 827 827 826 826 825 825 825 825 826 827 828 828 828 828 828 828 827 826 825 824 823 821 820 819 817 815 813 812 810 808 805
784 786 787 789 791 793 794 796 798 799 801 802 803 804 806 807 808 810 811 812 813 814 815 816 817 818 819 820 821 822 823 823 824 824 824 825 825 825 825 825 825 825 825 825 825 825 825 825 825 825 825 826 826 825 825 825 824 824 824 823 823 824 825 825 826 826 826 826 826 825 825 824 823 821 820 819 818 816 815 813 811 809 807 805 803
781 783 784 787 789 790 792 793 795 797 799 800 801 802 804 805 807 808 809 810 811 813 814 815 815 816 817 818 819 820 821 821 822 822 822 822 822 822 822 822 822 823 823 823 823 823 823 823 824 824 824 824 824 824 824 823 823 822 822 821 822 822 823 824 824 824 824 824 824 823 822 821 820 819 818 817 816 814 812 810 808 806 805 802 800
778 779 781 783 785 787 789 790 792 794 796 797 799 800 802 803 805 806 807 808 809 810 811 813 813 814 815 816 817 817 818 819 819 819 819 819 819 819 820 820 820 820 821 821 821 822 822 822 822 822 822 822 822 822 822 821 821 820 820 820 821 822 822 822 822 822 822 822 821 821 820 819 818 817 816 815 813 812 810 808 806 804 802 800 798
774 776 778 780 782 784 786 787 789 791 793 795 797 798 799 801 803 804 805 806 807 808 809 810 811 812 813 813 814 815 815 815 816 816 816 816 816 816 817 817 817 818 818 819 819 820 820 820 820 820 820 820 820 820 820 819 819 819 820 820 820 821 821 821 821 820 820 820 819 818 818 817 816 815 814 812 811 809 807 805 803 802 800 798 796
770 772 774 776 778 780 782 784 786 788 790 792 794 795 797 798 799 801 802 803 804 805 806 807 808 809 809 810 811 811 812 812 812 812 812 813 813 814 814 815 815 816 816 817 817 818 818 818 819 818 818 818 818 818 818 818 818 818 819 819 819 819 819 819 819 818 818 817 817 816 815 814 813 812 811 810 808 806 805 803 801 799 797 796 794
766 768 770 772 774 777 778 781 783 785 787 789 790 792 793 795 796 797 798 799 800 802 803 803 804 805 806 807 807 808 808 809 809 809 809 810 810 811 812 812 813 814 814 815 816 816 816 817 817 817 817 817 817 817 817 817 817 817 817 817 817 817 817 817 816 816 815 815 814 813 813 812 811 810 808 807 805 804 802 800 799 797 795 793 791
763 764 766 768 770 772 775 777 779 781 783 785 787 788 790 791 792 794 795 796 797 798 799 800 801 802 802 803 804 804 805 805 805 805 806 807 808 809 810 810 811 812 812 813 814 814 815 815 815 815 816 815 815 816 816 816 816 816 816 815 815 815 815 814 814 813 813 812 811 811 810 809 807 806 805 804 803 801 799 798 796 795 793 791 789
759 761 763 765 767 769 771 773 775 778 780 782 783 785 786 788 789 790 791 792 793 794 795 796 797 798 799 800 800 800 801 801 802 803 804 805 806 807 808 808 809 810 810 811 812 812 813 814 814 814 814 814 814 815 815 814 814 814 814 814 814 813 813 812 812 811 811 810 809 808 807 806 805 804 802 801 800 798 797 795 794 792 791 789 787
755 757 759 761 763 765 767 769 771 773 775 778 780 781 783 784 785 786 787 788 789 791 792 793 794 794 795 796 796 797 797 798 799 800 801 802 803 805 805 806 807 808 809 810 810 811 811 812 812 813 813 813 813 813 813 813 813 812 812 812 812 811 811 810 810 809 808 807 806 805 804 803 802 801 800 799 797 796 794 793 792 790 789 787 785
751 753 755 758 760 762 763 765 767 769 771 774 776 777 779 780 781 782 784 785 786 787 788 789 790 791 791 792 792 793 793 794 795 797 798 800 801 802 803 804 805 806 807 807 808 809 809 810 810 811 811 811 811 811 811 810 810 810 810 810 810 809 809 808 807 807 806 805 804 803 802 800 800 799 797 796 795 793 792 791 789 788 786 785 783
747 750 752 754 756 758 760 762 764 766 768 770 772 773 775 776 777 778 780 781 782 783 784 785 786 787 787 788 789 789 790 791 793 794 796 797 798 800 801 802 802 803 804 805 806 806 807 808 808 809 809 809 809 808 808 808 808 808 808 807 807 807 806 806 805 804 803 802 801 800 799 798 797 796 795 794 793 791 789 788 787 785 784 782 781